Location: Unspecified
(0.0000°N, 0.0000°E)
Time: 07:06:11
(UTC+00:00)

A-11 Canister half - All Passes

Search period start: 28 August 2014 00:00
Search period end: 07 September 2014 00:00
Orbit: 1518 x 1682 km, 47.2° (Epoch: 23 August)

Date Brightness Start Highest point End Pass type
(mag) Time Alt. Az. Time Alt. Az. Time Alt. Az.
28 Aug - 04:42:40 10° SSW 04:50:58 37° SE 04:59:15 10° ENE visible
28 Aug - 06:46:57 10° WSW 06:55:37 45° NW 07:04:27 10° NNE daylight
28 Aug - 15:31:12 10° NNE 15:36:42 16° NE 15:42:11 10° E daylight
28 Aug - 17:31:54 10° NW 17:42:04 80° NE 17:52:08 10° SE daylight
28 Aug - 19:39:57 10° W 19:47:08 22° SW 19:54:17 10° S visible
29 Aug - 04:20:01 10° SSW 04:28:06 33° SE 04:36:08 10° ENE visible
29 Aug - 06:23:57 10° WSW 06:32:46 50° NW 06:41:42 10° NNE daylight
29 Aug - 15:08:59 10° NNE 15:13:43 14° NE 15:18:27 10° ENE daylight
29 Aug - 17:09:03 10° NNW 17:19:10 74° NE 17:29:13 10° SE daylight
29 Aug - 19:16:35 10° W 19:24:11 24° SW 19:31:45 10° S visible
30 Aug - 03:57:23 10° S 04:05:13 31° SE 04:13:00 10° ENE visible
30 Aug - 06:00:59 10° SW 06:09:54 54° NW 06:18:57 10° NNE daylight
30 Aug - 14:46:57 10° NNE 14:50:44 12° NE 14:54:30 10° ENE daylight
30 Aug - 16:46:12 10° NNW 16:56:16 69° NE 17:06:17 10° SE daylight
30 Aug - 18:53:17 10° W 19:01:15 26° SW 19:09:12 10° S visible
31 Aug - 03:34:47 10° S 03:42:21 28° SE 03:49:50 10° ENE visible
31 Aug - 05:38:01 10° SW 05:47:03 59° NW 05:56:11 10° NNE visible
31 Aug - 14:25:21 10° NNE 14:27:43 11° NE 14:30:05 10° ENE daylight
31 Aug - 16:23:23 10° NNW 16:33:22 64° NE 16:43:19 10° SE daylight
31 Aug - 18:30:01 10° WNW 18:38:19 29° SW 18:46:36 10° S visible
01 Sep - 03:12:12 10° S 03:19:27 25° SE 03:26:38 10° E visible
01 Sep - 05:15:05 10° SW 05:24:12 65° NW 05:33:24 10° NNE visible
01 Sep - 07:29:03 10° NW 07:29:37 10° NW 07:30:12 10° NW daylight
01 Sep - 16:00:35 10° NNW 16:10:28 59° NE 16:20:20 10° SE daylight
01 Sep - 18:06:48 10° WNW 18:15:24 32° SW 18:23:58 10° S visible
02 Sep - 02:49:39 10° S 02:56:33 23° SE 03:03:23 10° E visible
02 Sep - 04:52:10 10° SW 05:01:22 70° NW 05:10:36 10° NNE visible
02 Sep - 07:03:52 10° WNW 07:06:39 12° NW 07:09:28 10° NNW daylight
02 Sep - 15:37:48 10° NNW 15:47:33 54° NE 15:57:20 10° SE daylight
02 Sep - 17:43:37 10° WNW 17:52:28 35° SW 18:01:19 10° SSE daylight
03 Sep - 02:27:09 10° S 02:33:39 21° SE 02:40:04 10° E visible
03 Sep - 04:29:16 10° SW 04:38:31 77° NW 04:47:47 10° NE visible
03 Sep - 06:39:50 10° WNW 06:43:42 13° NW 06:47:35 10° NNW daylight
03 Sep - 15:15:02 10° NNW 15:24:39 50° NE 15:34:18 10° ESE daylight
03 Sep - 17:20:28 10° WNW 17:29:33 38° SW 17:38:38 10° SSE daylight
04 Sep - 02:04:41 10° S 02:10:44 19° SE 02:16:43 10° E visible
04 Sep - 04:06:23 10° SW 04:15:40 83° NW 04:24:57 10° NE visible
04 Sep - 06:16:06 10° WNW 06:20:45 15° NW 06:25:27 10° NNW daylight
04 Sep - 14:52:17 10° NNW 15:01:44 45° NE 15:11:14 10° ESE daylight
04 Sep - 16:57:21 10° WNW 17:06:38 41° SW 17:15:56 10° SSE daylight
05 Sep - 01:42:17 10° S 01:47:49 17° SE 01:53:16 10° E visible
05 Sep - 03:43:31 10° SW 03:52:50 89° NW 04:02:06 10° NE visible
05 Sep - 05:52:32 10° W 05:57:49 16° NW 06:03:10 10° N daylight
05 Sep - 14:29:33 10° NNW 14:38:50 42° NE 14:48:09 10° ESE daylight
05 Sep - 16:34:16 10° WNW 16:43:43 45° SW 16:53:12 10° SSE daylight
06 Sep - 01:19:58 10° SSE 01:24:53 15° SE 01:29:44 10° ESE visible
06 Sep - 03:20:39 10° SW 03:29:59 84° SE 03:39:14 10° NE visible
06 Sep - 05:29:04 10° W 05:34:54 18° NW 05:40:47 10° N visible
06 Sep - 14:06:51 10° NNW 14:15:55 38° NE 14:25:02 10° ESE daylight
06 Sep - 16:11:13 10° WNW 16:20:48 49° SW 16:30:27 10° SSE daylight
